User: anonymous
Location: Unspecified
(0.0000°N, 0.0000°E)
Time: 13:50:18
(UTC+02:00)
Language:

Iridium 15 - Orbit

View from above orbital plane
View from above orbital plane
View from above satellite
View from above satellite

Ground track
Ground track

The orbit data is extracted from the following two-line orbital elements,

1 24869U 97034A   14272.48142912  .00000275  00000-0  91280-4 0   932
2 24869 086.3931 076.3566 0002086 108.5461 303.8716 14.34216067901771
Epoch (UTC): 29 September 2014 11:33:15
Eccentricity: 0.0002086
inclination: 86.3931°
perigee height: 776 km
apogee height: 779 km
right ascension of ascending node: 76.3566°
argument of perigee: 108.5461°
revolutions per day: 14.34216067
mean anomaly at epoch: 303.8716°
orbit number at epoch: 90177

The dashed part of the orbit path shows where the satellite is in the earth's shadow,  

DLR